Hourly Weather Lucynow

Today, 7 May, Friday

Time Temperature Precipitation Wind Pressure Humidity
00:00 +6°C° 0.3 mm 4 mps 735 mmHg 82%
01:00 +6°C° 0.3 mm 5 mps 735 mmHg 87%
02:00 +6°C° 0.9 mm 4 mps 735 mmHg 89%
03:00 +5°C° 0.9 mm 4 mps 734 mmHg 91%
04:00 +5°C° 0.9 mm 4 mps 734 mmHg 93%
05:00 +5°C° 0.3 mm 3 mps 734 mmHg 93%
06:00 +5°C° 0.3 mm 3 mps 734 mmHg 94%
07:00 +5°C° 0.3 mm 3 mps 733 mmHg 94%
08:00 +7°C° 0.1 mm 3 mps 733 mmHg 92%
09:00 +8°C° 0.1 mm 3 mps 734 mmHg 90%
10:00 +7°C° 0.1 mm 4 mps 734 mmHg 87%
11:00 +7°C° 0.2 mm 4 mps 734 mmHg 88%
12:00 +6°C° 0.2 mm 4 mps 734 mmHg 89%
13:00 +6°C° 0.2 mm 4 mps 734 mmHg 90%
14:00 +6°C° 0.2 mm 5 mps 735 mmHg 90%
15:00 +4°C° 0.2 mm 6 mps 735 mmHg 90%
16:00 +4°C° 0.2 mm 6 mps 736 mmHg 91%
17:00 +4°C° 0.3 mm 6 mps 737 mmHg 91%
18:00 +3°C° 0.3 mm 6 mps 737 mmHg 91%
19:00 +3°C° 0.3 mm 6 mps 738 mmHg 91%
20:00 +2°C° 0 mm 6 mps 739 mmHg 91%
21:00 +2°C° 0 mm 6 mps 739 mmHg 91%
22:00 +2°C° 0 mm 6 mps 740 mmHg 91%
23:00 +1°C° 0 mm 6 mps 740 mmHg 92%

Tomorrow, 8 May, Saturday

Time Temperature Precipitation Wind Pressure Humidity
00:00 +1°C° 0 mm 5 mps 741 mmHg 93%
01:00 0°C° 0 mm 5 mps 741 mmHg 94%
02:00 0°C° 0 mm 5 mps 741 mmHg 92%
03:00 +1°C° 0 mm 6 mps 742 mmHg 89%
04:00 +1°C° 0 mm 6 mps 742 mmHg 87%
05:00 +2°C° 0 mm 6 mps 743 mmHg 85%
06:00 +2°C° 0 mm 5 mps 743 mmHg 84%
07:00 +3°C° 0 mm 5 mps 744 mmHg 83%
08:00 +4°C° 0.1 mm 6 mps 744 mmHg 75%
09:00 +7°C° 0.1 mm 6 mps 744 mmHg 67%
10:00 +8°C° 0.1 mm 6 mps 744 mmHg 59%
11:00 +8°C° 0.1 mm 6 mps 744 mmHg 55%
12:00 +9°C° 0.1 mm 6 mps 745 mmHg 51%
13:00 +10°C° 0.1 mm 6 mps 745 mmHg 47%
14:00 +10°C° 0.1 mm 6 mps 745 mmHg 48%
15:00 +10°C° 0.1 mm 5 mps 745 mmHg 50%
16:00 +10°C° 0.1 mm 5 mps 745 mmHg 51%
17:00 +10°C° 0 mm 4 mps 745 mmHg 56%
18:00 +8°C° 0 mm 2 mps 745 mmHg 61%
19:00 +8°C° 0 mm 1 mps 745 mmHg 66%
20:00 +8°C° 0 mm 1 mps 745 mmHg 67%
21:00 +6°C° 0 mm 2 mps 745 mmHg 69%
22:00 +5°C° 0 mm 2 mps 746 mmHg 70%
23:00 +5°C° 0 mm 2 mps 746 mmHg 72%

Day after tomorrow, 9 May, Sunday

Time Temperature Precipitation Wind Pressure Humidity
00:00 +4°C° 0 mm 3 mps 746 mmHg 73%
01:00 +4°C° 0 mm 3 mps 746 mmHg 74%
02:00 +3°C° 0 mm 3 mps 746 mmHg 75%
03:00 +3°C° 0 mm 3 mps 745 mmHg 76%
04:00 +3°C° 0 mm 3 mps 745 mmHg 78%
05:00 +5°C° 0 mm 4 mps 745 mmHg 73%
06:00 +6°C° 0 mm 4 mps 745 mmHg 69%
07:00 +8°C° 0 mm 4 mps 745 mmHg 64%
08:00 +10°C° 0 mm 5 mps 745 mmHg 60%
09:00 +13°C° 0 mm 6 mps 745 mmHg 55%
10:00 +15°C° 0 mm 7 mps 745 mmHg 50%
11:00 +16°C° 0 mm 6 mps 745 mmHg 49%
12:00 +17°C° 0 mm 6 mps 744 mmHg 48%
13:00 +19°C° 0 mm 6 mps 744 mmHg 47%
14:00 +19°C° 0 mm 6 mps 744 mmHg 48%
15:00 +19°C° 0 mm 5 mps 744 mmHg 50%
16:00 +20°C° 0 mm 4 mps 743 mmHg 52%
17:00 +18°C° 0 mm 4 mps 743 mmHg 59%
18:00 +15°C° 0 mm 4 mps 743 mmHg 66%
19:00 +13°C° 0 mm 3 mps 743 mmHg 73%
20:00 +12°C° 0 mm 3 mps 743 mmHg 75%
21:00 +11°C° 0 mm 3 mps 743 mmHg 78%
22:00 +10°C° 0 mm 3 mps 743 mmHg 80%
23:00 +10°C° 0 mm 3 mps 743 mmHg 81%

10 May, Monday

Time Temperature Precipitation Wind Pressure Humidity
00:00 +9°C° 0 mm 3 mps 743 mmHg 81%
01:00 +9°C° 0 mm 3 mps 743 mmHg 82%
02:00 +8°C° 0 mm 3 mps 743 mmHg 82%
03:00 +8°C° 0 mm 3 mps 742 mmHg 82%
04:00 +7°C° 0 mm 3 mps 742 mmHg 82%
05:00 +8°C° 0 mm 4 mps 742 mmHg 78%
06:00 +10°C° 0 mm 4 mps 742 mmHg 73%
07:00 +12°C° 0 mm 5 mps 742 mmHg 69%
08:00 +14°C° 0 mm 5 mps 742 mmHg 63%
09:00 +16°C° 0 mm 5 mps 742 mmHg 58%
10:00 +20°C° 0 mm 5 mps 742 mmHg 52%
11:00 +21°C° 0 mm 5 mps 742 mmHg 50%
12:00 +22°C° 0 mm 5 mps 742 mmHg 48%
13:00 +23°C° 0 mm 6 mps 742 mmHg 46%
14:00 +23°C° 0 mm 5 mps 742 mmHg 49%
15:00 +23°C° 0 mm 5 mps 742 mmHg 52%
16:00 +23°C° 0 mm 5 mps 742 mmHg 55%
17:00 +21°C° 0 mm 4 mps 742 mmHg 62%
18:00 +19°C° 0 mm 3 mps 742 mmHg 70%
19:00 +17°C° 0 mm 2 mps 742 mmHg 77%
20:00 +16°C° 0 mm 2 mps 742 mmHg 80%
21:00 +16°C° 0 mm 3 mps 742 mmHg 83%
22:00 +14°C° 0 mm 3 mps 742 mmHg 86%
23:00 +13°C° 0 mm 3 mps 742 mmHg 87%

11 May, Tuesday

Time Temperature Precipitation Wind Pressure Humidity
00:00 +13°C° 0 mm 3 mps 741 mmHg 87%
01:00 +12°C° 0 mm 4 mps 741 mmHg 88%
02:00 +12°C° 0 mm 4 mps 741 mmHg 88%
03:00 +12°C° 0 mm 4 mps 740 mmHg 88%
04:00 +11°C° 0 mm 4 mps 740 mmHg 88%
05:00 +13°C° 0 mm 5 mps 740 mmHg 84%
06:00 +14°C° 0 mm 5 mps 740 mmHg 79%
07:00 +16°C° 0 mm 6 mps 740 mmHg 75%
08:00 +19°C° 0 mm 6 mps 740 mmHg 68%
09:00 +21°C° 0 mm 6 mps 740 mmHg 62%
10:00 +23°C° 0 mm 6 mps 740 mmHg 56%
11:00 +24°C° 0 mm 6 mps 740 mmHg 54%
12:00 +26°C° 0 mm 6 mps 740 mmHg 52%
13:00 +26°C° 0 mm 6 mps 740 mmHg 49%
14:00 +26°C° 0 mm 6 mps 739 mmHg 53%
15:00 +26°C° 0 mm 6 mps 739 mmHg 56%
16:00 +26°C° 0 mm 6 mps 739 mmHg 59%
17:00 +23°C° 0 mm 6 mps 738 mmHg 63%
18:00 +22°C° 0 mm 6 mps 738 mmHg 67%
19:00 +20°C° 0 mm 6 mps 738 mmHg 71%
20:00 +19°C° 0 mm 6 mps 738 mmHg 73%
21:00 +17°C° 0 mm 5 mps 738 mmHg 75%
22:00 +16°C° 0 mm 5 mps 738 mmHg 77%
23:00 +15°C° 0 mm 5 mps 737 mmHg 79%

12 May, Wednesday

Time Temperature Precipitation Wind Pressure Humidity
00:00 +14°C° 0 mm 4 mps 737 mmHg 81%
01:00 +14°C° 0 mm 4 mps 737 mmHg 83%
02:00 +13°C° 0 mm 4 mps 737 mmHg 83%
03:00 +13°C° 0 mm 4 mps 737 mmHg 84%
04:00 +12°C° 0 mm 4 mps 736 mmHg 84%
05:00 +13°C° 0 mm 4 mps 736 mmHg 81%
06:00 +14°C° 0 mm 4 mps 736 mmHg 78%
07:00 +15°C° 0 mm 5 mps 736 mmHg 75%
08:00 +17°C° 0 mm 5 mps 736 mmHg 70%
09:00 +20°C° 0 mm 6 mps 736 mmHg 64%
10:00 +22°C° 0 mm 6 mps 735 mmHg 59%
11:00 +23°C° 0 mm 6 mps 735 mmHg 56%
12:00 +23°C° 0 mm 7 mps 735 mmHg 53%
13:00 +24°C° 0 mm 7 mps 735 mmHg 50%
14:00 +24°C° 0 mm 7 mps 734 mmHg 53%
15:00 +24°C° 0 mm 7 mps 734 mmHg 55%
16:00 +23°C° 0 mm 7 mps 733 mmHg 58%
17:00 +22°C° 0 mm 7 mps 733 mmHg 62%
18:00 +21°C° 0 mm 8 mps 733 mmHg 65%
19:00 +18°C° 0 mm 8 mps 732 mmHg 68%
20:00 +17°C° 0 mm 7 mps 732 mmHg 69%
21:00 +17°C° 0 mm 7 mps 732 mmHg 70%
22:00 +16°C° 0 mm 7 mps 732 mmHg 71%
23:00 +15°C° 0 mm 7 mps 732 mmHg 73%
Show more

We Need Your Consent

Meteoprog and our Service Providers may store and access personal data such as cookies, device identifiers or other similar technologies on your device and process such data to personalise content and ads, as well as provide social media features and to analyse the traffic.

  • Store and/or access information on your device

    Cookies, device identifiers or other information can be stored or accessed on your device for the purposes indicated above.

  • Personalised ads and content, ad and content measurement, audience insights, and products development

    Ads and content can be personalised based on a profile. More data can be added to better personalise ads and content. Ad and content performance can be measured. Insights about the audience who saw the ads and content can be derived. Such data can be used to develop or improve user’s experience, systems and software.

By clicking ‘I Agree’ you will allow the use of indicated cookies, device identifiers, web beacons or other similar technologies. Your settings can be changed in the browser on your device.

For certain purposes, legitimate interests may be relied on, rather than consent. You can read more about this in our Privacy and Cookie Policy.